Jasper, AL

10:25 PM CST on November 22, 2017 (GMT -0600)
Walker County-Bevill

Weather History for KJFX - February, 2013

Change the Weather History Date:

Monday, February 18, 2013

  Actual Average Record
Temperature  
Mean Temperature 46 °F -  
Max Temperature 64 °F 57 °F 79 °F (1976)
Min Temperature 28 °F 34 °F 11 °F (1980)
Degree Days  
Heating Degree Days 19    
Moisture  
Dew Point 34 °F    
Average Humidity 63    
Maximum Humidity 100    
Minimum Humidity 34    
Precipitation  
Precipitation 0.00 in - - ()
Sea Level Pressure  
Sea Level Pressure 30.15 in    
Wind  
Wind Speed 4 mph (South)    
Max Wind Speed 17 mph    
Max Gust Speed 32 mph    
Visibility 10 miles    
Events Rain , Snow    
Averages and records for this station are not official NWS values.
T = Trace of Precipitation, MM = Missing Value Source: NWS Daily Summary

Daily Weather History Graph

Daily Weather History Graph

Search for Another Location

Airport or City:

Trip Planner

Search our weather history database for the weather conditions in past years. The results will help you decide how hot, cold, wet, or windy it might be!

Date:

Astronomy

Feb. 18, 2013 Rise Set
Actual Time 6:30 AM CST 5:36 PM CST
Civil Twilight 6:04 AM CST 6:01 PM CST
Nautical Twilight 5:35 AM CST 6:30 PM CST
Astronomical Twilight 5:06 AM CST 6:59 PM CST
Moon 11:29 AM CST (2/18) 1:02 AM CST (2/18)
Length of Visible Light 11h 56m
Length of Day
11h 06m
First Quarter, 58% of the Moon is Illuminated
Feb 18
First Quarter
Feb 25
Full
Mar 4
Last Quarter
Mar 11
New
Mar 19
First Quarter

Hourly Weather History & Observations

Time (CST) Temp. Windchill Dew Point Humidity Pressure Visibility Wind Dir Wind Speed Gust Speed Precip Events Conditions
12:15 AM 30.2 °F - 28.4 °F 93% 30.24 in 10.0 mi Calm Calm - N/A   Clear
12:35 AM 30.2 °F - 28.4 °F 93% 30.24 in 10.0 mi Calm Calm - N/A   Clear
12:55 AM 30.2 °F - 28.4 °F 93% 30.24 in 10.0 mi Calm Calm - N/A   Clear
1:15 AM 30.2 °F - 28.4 °F 93% 30.24 in 10.0 mi Calm Calm - N/A   Clear
1:35 AM 30.2 °F - 28.4 °F 93% 30.24 in 10.0 mi Calm Calm - N/A   Clear
1:55 AM 30.2 °F - 28.4 °F 93% 30.24 in 10.0 mi Calm Calm - N/A   Clear
2:15 AM 30.2 °F - 28.4 °F 93% 30.24 in 10.0 mi Calm Calm - N/A   Clear
2:35 AM 30.2 °F - 28.4 °F 93% 30.24 in 10.0 mi Calm Calm - N/A   Clear
2:55 AM 30.2 °F - 28.4 °F 93% 30.24 in 10.0 mi Calm Calm - N/A   Clear
3:15 AM 30.2 °F - 28.4 °F 93% 30.24 in 10.0 mi Calm Calm - N/A Snow Light Snow
3:35 AM 30.2 °F - 28.4 °F 93% 30.23 in 10.0 mi Calm Calm - N/A Snow Light Snow
3:55 AM 30.2 °F - 28.4 °F 93% 30.23 in 10.0 mi Calm Calm - N/A Snow Light Snow
4:15 AM 28.4 °F - 28.4 °F 100% 30.24 in 10.0 mi Calm Calm - N/A   Clear
4:55 AM 30.2 °F - 28.4 °F 93% 30.24 in 10.0 mi Calm Calm - N/A Snow Light Snow
5:15 AM 30.2 °F - 28.4 °F 93% 30.25 in 10.0 mi Calm Calm - N/A   Clear
5:35 AM 28.4 °F - 26.6 °F 93% 30.25 in 10.0 mi Calm Calm - N/A   Clear
5:55 AM 28.4 °F - 26.6 °F 93% 30.25 in 10.0 mi Calm Calm - N/A   Clear
6:15 AM 28.4 °F - 26.6 °F 93% 30.26 in 10.0 mi Calm Calm - N/A Snow Light Snow
6:35 AM 28.4 °F - 28.4 °F 100% 30.26 in 10.0 mi Calm Calm - N/A   Clear
6:55 AM 30.2 °F - 28.4 °F 93% 30.26 in 10.0 mi Calm Calm - N/A Snow Light Snow
7:15 AM 30.2 °F - 28.4 °F 93% 30.27 in 10.0 mi Calm Calm - N/A   Clear
7:35 AM 32.0 °F - 30.2 °F 93% 30.27 in 10.0 mi Calm Calm - N/A   Clear
8:15 AM 37.4 °F - 32.0 °F 81% 30.28 in 10.0 mi Calm Calm - N/A   Clear
8:35 AM 39.2 °F 35.9 °F 32.0 °F 75% 30.28 in 10.0 mi SSE 4.6 mph - N/A   Clear
9:15 AM 46.4 °F 44.3 °F 32.0 °F 57% 30.28 in 10.0 mi South 4.6 mph - N/A   Clear
9:35 AM 48.2 °F - 33.8 °F 58% 30.28 in 10.0 mi SSE 6.9 mph - N/A Rain Light Rain
9:55 AM 51.8 °F - 33.8 °F 50% 30.27 in 10.0 mi South 8.1 mph - N/A Rain Light Rain
10:15 AM 53.6 °F - 35.6 °F 51% 30.27 in 10.0 mi South 5.8 mph - N/A   Clear
10:35 AM 55.4 °F - 37.4 °F 51% 30.26 in 10.0 mi South 5.8 mph - N/A   Clear
11:15 AM 60.8 °F - 37.4 °F 42% 30.24 in 10.0 mi South 9.2 mph 16.1 mph N/A   Clear
11:35 AM 60.8 °F - 39.2 °F 45% 30.23 in 10.0 mi South 8.1 mph 17.3 mph N/A   Clear
11:55 AM 62.6 °F - 37.4 °F 39% 30.21 in 10.0 mi South 12.7 mph 21.9 mph N/A   Clear
12:15 PM 62.6 °F - 37.4 °F 39% 30.20 in 10.0 mi SSW 9.2 mph 21.9 mph N/A   Clear
12:35 PM 62.6 °F - 37.4 °F 39% 30.17 in 10.0 mi South 9.2 mph - N/A   Clear
12:55 PM 64.4 °F - 37.4 °F 37% 30.15 in 10.0 mi South 16.1 mph 21.9 mph N/A   Clear
1:15 PM 62.6 °F - 37.4 °F 39% 30.14 in 10.0 mi SSE 11.5 mph 23.0 mph N/A   Clear
1:35 PM 64.4 °F - 35.6 °F 34% 30.13 in 10.0 mi SSE 15.0 mph 23.0 mph N/A   Clear
1:55 PM 62.6 °F - 35.6 °F 37% 30.12 in 10.0 mi South 9.2 mph 23.0 mph N/A   Clear
2:15 PM 62.6 °F - 35.6 °F 37% 30.11 in 10.0 mi South 11.5 mph 20.7 mph N/A   Clear
2:35 PM 62.6 °F - 35.6 °F 37% 30.10 in 10.0 mi South 10.4 mph 16.1 mph N/A   Clear
2:55 PM 62.6 °F - 35.6 °F 37% 30.10 in 10.0 mi South 17.3 mph 21.9 mph N/A   Clear
3:15 PM 62.6 °F - 35.6 °F 37% 30.09 in 10.0 mi South 13.8 mph 24.2 mph N/A   Clear
3:35 PM 62.6 °F - 35.6 °F 37% 30.07 in 10.0 mi South 11.5 mph 20.7 mph N/A   Clear
3:55 PM 62.6 °F - 35.6 °F 37% 30.06 in 10.0 mi South 9.2 mph 26.5 mph N/A   Clear
4:15 PM 62.6 °F - 35.6 °F 37% 30.05 in 10.0 mi South 9.2 mph 23.0 mph N/A   Clear
4:35 PM 62.6 °F - 35.6 °F 37% 30.04 in 10.0 mi SSE 16.1 mph 20.7 mph N/A   Clear
4:55 PM 62.6 °F - 35.6 °F 37% 30.02 in 10.0 mi South 11.5 mph 21.9 mph N/A   Clear
5:15 PM 60.8 °F - 35.6 °F 39% 30.03 in 10.0 mi SSE 11.5 mph 21.9 mph N/A   Clear
5:35 PM 60.8 °F - 37.4 °F 42% 30.03 in 10.0 mi SSE 8.1 mph - N/A   Scattered Clouds
5:55 PM 60.8 °F - 37.4 °F 42% 30.03 in 10.0 mi SSE 9.2 mph 16.1 mph N/A   Scattered Clouds
6:15 PM 60.8 °F - 37.4 °F 42% 30.02 in 10.0 mi SSE 11.5 mph 17.3 mph N/A   Mostly Cloudy
6:35 PM 60.8 °F - 37.4 °F 42% 30.02 in 10.0 mi SSE 12.7 mph 18.4 mph N/A   Clear
6:55 PM 60.8 °F - 37.4 °F 42% 30.01 in 10.0 mi SSE 11.5 mph 18.4 mph N/A   Partly Cloudy
7:35 PM 59.0 °F - 35.6 °F 42% 30.01 in 10.0 mi SSE 8.1 mph 18.4 mph N/A   Scattered Clouds
7:55 PM 59.0 °F - 35.6 °F 42% 30.01 in 10.0 mi SSE 10.4 mph 17.3 mph N/A   Scattered Clouds
8:15 PM 59.0 °F - 35.6 °F 42% 30.00 in 10.0 mi South 9.2 mph 19.6 mph N/A   Partly Cloudy
8:35 PM 59.0 °F - 37.4 °F 45% 29.99 in 10.0 mi South 12.7 mph 21.9 mph N/A   Partly Cloudy
9:15 PM 57.2 °F - 37.4 °F 48% 29.98 in 10.0 mi South 13.8 mph 32.2 mph N/A   Mostly Cloudy
9:55 PM 57.2 °F - 35.6 °F 44% 29.96 in 10.0 mi South 11.5 mph 21.9 mph N/A   Scattered Clouds
10:15 PM 55.4 °F - 37.4 °F 51% 29.96 in 10.0 mi South 11.5 mph 26.5 mph N/A Rain Light Rain
10:35 PM 53.6 °F - 41.0 °F 62% 29.95 in 5.0 mi South 12.7 mph 29.9 mph N/A Rain Light Rain
11:15 PM 50.0 °F - 44.6 °F 82% 29.95 in 6.0 mi South 8.1 mph 16.1 mph N/A Rain Light Rain
11:35 PM 50.0 °F - 44.6 °F 82% 29.96 in 2.5 mi South 4.6 mph - N/A Rain Heavy Rain
11:55 PM 48.2 °F - 46.4 °F 93% 29.95 in 4.0 mi South 4.6 mph - N/A Rain Rain